20201021,10
20201022,10
20201023,22
20201026,24
20201027,24
20201028,27
20201029,42
20201030,73
20201102,95
20201104,112
20201105,118
20201106,140
20201109,161
20201110,189
20201111,176
20201112,219
20201113,220
20201116,244
20201117,302
20201118,330
20201119,341
20201120,445
20201124,467
20201125,514
20201126,528
20201127,556
20201130,559
20201201,652
20201202,688
20201203,716
20201204,737
20201207,755
20201208,774
20201209,786
20201210,817
20201211,827
20201214,876
20201215,945
20201216,1115
20201217,1177
20201218,1330
20201221,1424
20201222,1504
20201223,1617
20201224,1715
20201225,1772
20201228,1821
20201229,1824
20201230,1889
20210104,1972
20210105,1993
20210106,2056
20210107,2090
20210108,2248
20210112,2312
20210113,2448
20210114,2494
20210115,2552
20210118,2596
20210119,2651
20210120,2186
20210121,2521
20210122,2574
20210125,2732
20210126,2992
20210127,3193
20210128,3406
20210129,3604
20210201,3649
20210202,3854
20210203,3997
20210204,4071
20210205,4180
20210208,4247
20210209,4377
20210210,4462
20210212,4628
20210215,4836
20210216,4983
20210217,5023
20210218,5203
20210219,5270
20210222,6490
20210224,6294
20210225,6448
20210226,6517
20210301,6573
20210302,6871
20210303,6801
20210304,6697
20210305,6546
20210308,6586
20210309,6423
20210310,6726
20210311,6760
20210312,7077
20210315,7093
20210316,7235
20210317,7197
20210318,7344
20210319,7206
20210322,7241
20210323,7347
20210324,7191
20210325,7019
20210326,7054
20210329,7221
20210330,7216
20210331,7413
20210401,7560
20210402,7730
20210405,7739
20210406,7800
20210407,7814
20210408,7728
20210409,7735
20210412,7691
20210413,7718
20210414,7768
20210415,7774
20210416,7847
20210419,7879
20210420,7847
20210421,7790
20210422,7950
20210423,7939
20210426,8091
20210427,8190
20210428,8232
20210430,8174
20210506,7959
20210507,7920
20210510,7973
20210511,7733
20210512,7653
20210513,7559
20210514,7523
20210517,7685
20210518,7687
20210519,7689
20210520,7676
20210521,7802
20210524,7798
20210525,7876
20210526,7932
20210527,8055
20210528,8160
20210531,8179
20210601,8233
20210602,8359
20210603,8362
20210604,8304
20210607,8394
20210608,8256
20210609,8282
20210610,8251
20210611,8279
20210614,8322
20210615,8385
20210616,8357
20210617,8317
20210618,8413
20210621,8408
20210622,8487
20210623,8480
20210624,8624
20210625,8729
20210628,8736
20210629,8781
20210630,8854
20210701,8793
20210702,8794
20210705,8686
20210706,8669
20210707,8547
20210708,8442
20210709,8262
20210712,8428
20210713,8495
20210714,8494
20210715,8313
20210716,8231
20210719,8146
20210720,7590
20210721,7918
20210726,8014
20210727,7867
20210728,7606
20210729,7717
20210730,7832
20210802,7800
20210803,7826
20210804,7787
20210805,7838
20210806,7916
20210810,7932
20210811,7956
20210812,8015
20210813,7993
20210816,7781
20210817,7647
20210818,7586
20210819,7622
20210820,7531
20210823,7576
20210824,7732
20210825,7891
20210826,7963
20210827,7927
20210830,8057
20210831,8114
20210901,8136
20210902,7995
20210903,8044
20210906,8025
20210907,8012
20210908,8042
20210909,6913
20210910,6838
20210913,6803
20210914,6756
20210915,6682
20210916,6701
20210917,6706
20210921,6509
20210922,6526
20210924,6732
20210927,6721
20210928,6748
20210929,6605
20210930,6574
20211001,6516
20211004,6501
20211005,6361
20211006,6467
20211007,6470
20211008,6609
20211011,6610
20211012,6622
20211013,6643
20211014,6691
20211015,6817
20211018,6852
20211019,6880
20211020,6999
20211021,6936
20211022,6971
20211025,6897
20211026,7024
20211027,7058
20211028,6982
20211029,7081
20211101,7140
20211102,7304
20211104,7329
20211105,7355
20211108,7310
20211109,7287
20211110,7152
20211111,7128
20211112,7212
20211115,7229
20211116,7212
20211117,7320
20211118,7248
20211119,7197
20211122,7209
20211124,6978
20211125,7050
20211126,7017
20211129,6810
20211130,6870
20211201,6782
20211202,6594
20211203,6679
20211206,6503
20211207,6566
20211208,6722
20211209,6809
20211210,6634
20211213,6620
20211214,6543
20211215,6450
20211216,6551
20211217,6401
20211220,6397
20211221,6287
20211222,6516
20211223,6583
20211224,6694
20211227,6668
20211228,6742
20211229,6682
20211230,6639
20220104,6810
20220105,6766
20220106,6520
20220107,6470
20220111,6302
20220112,6410
20220113,6376
20220114,6166
20220117,6155
20220118,6142
20220119,6017
20220120,5931
20220121,5871
20220124,5605
20220125,5585
20220126,5477
20220127,5423
20220128,5251
20220131,5291
20220201,5547
20220202,5593
20220203,5500
20220204,5363
20220207,5539
20220208,5527
20220209,5651
20220210,5771
20220214,5528
20220215,5499
20220216,5732
20220217,5700
20220218,5519
20220221,5450
20220222,5450
20220224,5134
20220225,5375
20220228,5438
20220301,5586
20220302,5472
20220303,5522
20220304,5307
20220307,5154
20220308,5048
20220309,5041
20220310,5182
20220311,5121
20220314,5004
20220315,4859
20220316,4986
20220317,5352
20220318,5535
20220322,5741
20220323,5953
20220324,5899
20220325,6014
20220328,5942
20220329,6091
20220330,6147
20220331,6068
20220401,5891
20220404,5911
20220405,6104
20220406,5993
20220407,5825
20220408,5801
20220411,5706
20220412,5635
20220413,5647
20220414,5764
20220415,5718
20220418,5727
20220419,5717
20220420,5913
20220421,5745
20220422,5583
20220425,5455
20220426,5481
20220427,5249
20220428,5262
20220502,5338
20220506,5311
20220509,5171
20220510,4854
20220511,4852
20220512,4636
20220513,4680
20220516,4965
20220517,4864
20220518,5059
20220519,4879
20220520,4920
20220523,4837
20220524,4865
20220525,4655
20220526,4758
20220527,4884
20220530,5051
20220531,5123
20220601,5125
20220602,5107
20220603,5334
20220606,5229
20220607,5313
20220608,5367
20220609,5481
20220610,5289
20220613,5113
20220614,4808
20220615,4835
20220616,4960
20220617,4683
20220620,4846
20220621,4854
20220622,5033
20220623,4989
20220624,5054
20220627,5163
20220628,5138
20220629,5018
20220630,4925
20220701,4841
20220704,4823
20220705,4854
20220706,4908
20220707,4850
20220708,5037
20220711,5046
20220712,4874
20220713,4807
20220714,4812
20220715,4837
20220719,4919
20220720,5062
20220721,5192
20220722,5249
20220725,5075
20220726,5062
20220727,4992
20220728,5123
20220729,5145
20220801,5162
20220802,5095
20220803,5216
20220804,5326
20220805,5337
20220808,5340
20220809,5328
20220810,5243
20220812,5358
20220815,5453
20220816,5438
20220817,5476
20220818,5365
20220819,5422
20220822,5298
20220823,5149
20220824,5099
20220825,5164
20220826,5262
20220829,5117
20220830,5060
20220831,5003
20220901,5008
20220902,4960
20220905,4913
20220906,4905
20220907,4977
20220908,5084
20220909,5095
20220912,5193
20220913,5249
20220914,5086
20220915,5069
20220916,5033
20220920,4943
20220921,4895
20220922,4863
20220926,4640
20220927,4611
20220928,4629
20220929,4698
20220930,4527
20221003,4489
20221004,4529
20221005,4681
20221006,4653
20221007,4617
20221011,4374
20221012,4319
20221013,4322
20221014,4397
20221017,4276
20221018,4462
20221019,4513
20221020,4468
20221021,4427
20221024,4496
20221025,4478
20221026,4595
20221027,4502
20221028,4522
20221031,4650
20221101,4601
20221102,4550
20221104,4346
20221107,4354
20221108,4365
20221109,4313
20221110,4181
20221111,4325
20221114,4404
20221115,4348
20221116,4438
20221117,4316
20221118,4291
20221121,4278
20221122,4227
20221124,4246
20221125,4225
20221128,4213
20221129,4127
20221130,4110
20221201,4249
20221202,4233
20221205,4250
20221206,4190
20221207,4122
20221208,4055
20221209,4127
20221212,4098
20221213,4152
20221214,4070
20221215,4036
20221216,3982
20221219,3886
20221220,3794
20221221,3684
20221222,3752
20221223,3685
20221226,3666
20221227,3685
20221228,3637
20221229,3637
20221230,3711
20230104,3624
20230105,3719
20230106,3709
20230110,3799
20230111,3867
20230112,3915
20230113,3871
20230116,3848
20230117,3864
20230118,3981
20230119,3859
20230120,3806
20230123,3923
20230124,4053
20230125,4027
20230126,3989
20230127,4097
20230130,4218
20230131,4130
20230201,4213
20230202,4313
20230203,4437
20230206,4469
20230207,4434
20230208,4419
20230209,4355
20230210,4347
20230213,4243
20230214,4306
20230215,4399
20230216,4515
20230217,4426
20230220,4423
20230221,4423
20230222,4291
20230224,4312
20230227,4314
20230228,4348
20230301,4364
20230302,4338
20230303,4377
20230306,4453
20230307,4419
20230308,4390
20230309,4373
20230310,4221
20230313,4076
20230314,4044
20230315,4153
20230316,4082
20230317,4189
20230320,4101
20230322,4209
20230323,4079
20230324,4112
20230327,4091
20230328,4097
20230329,4087
20230330,4222
20230331,4285
20230403,4375
20230404,4305
20230405,4233
20230406,4112
20230407,4124
20230410,4149
20230411,4215
20230412,4236
20230413,4157
20230414,4182
20230417,4192
20230418,4218
20230419,4195
20230420,4196
20230421,4102
20230424,4080
20230425,4073
20230426,3969
20230427,3936
20230428,3991
20230501,4119
20230502,4147
20230508,4093
20230509,4109
20230510,4105
20230511,4115
20230512,4139
20230515,4139
20230516,4185
20230517,4175
20230518,4312
20230519,4420
20230522,4356
20230523,4460
20230524,4381
20230525,4339
20230526,4309
20230529,4444
20230530,4429
20230531,4471
20230601,4447
20230602,4478
20230605,4590
20230606,4593
20230607,4653
20230608,4672
20230609,4677
20230612,4715
20230613,4827
20230614,4960
20230615,4951
20230616,4988
20230619,5011
20230620,5016
20230621,4982
20230622,4940
20230623,4932
20230626,4848
20230627,4814
20230628,4945
20230629,5084
20230630,5157
20230703,5199
20230704,5239
20230705,5238
20230706,5244
20230707,5085
20230710,5055
20230711,5088
20230712,5058
20230713,5089
20230714,5139
20230718,5205
20230719,5215
20230720,5167
20230721,5056
20230724,5088
20230725,5115
20230726,5140
20230727,5097
20230728,4989
20230731,5137
20230801,5344
20230802,5348
20230803,5191
20230804,5157
20230807,5116
20230808,5164
20230809,5155
20230810,5093
20230814,5073
20230815,5150
20230816,5049
20230817,4974
20230818,4878
20230821,4854
20230822,4968
20230823,4951
20230824,4993
20230825,4889
20230828,4916
20230829,5006
20230830,5128
20230831,5165
20230901,5143
20230904,5133
20230905,5148
20230906,5192
20230907,5198
20230908,5116
20230911,5108
20230912,5174
20230913,5138
20230914,5104
20230915,5157
20230919,5105
20230920,5071
20230921,5026
20230922,4872
20230925,4853
20230926,4871
20230927,4795
20230928,4837
20230929,4873
20231002,4926
20231003,4906
20231004,4770
20231005,4841
20231006,4797
20231010,4895
20231011,4959
20231012,4969
20231013,4908
20231016,4819
20231017,4873
20231018,4888
20231019,4787
20231020,4703
20231023,4628
20231024,4580
20231025,4629
20231026,4517
20231027,4465
20231030,4392
20231031,4388
20231101,4481
20231102,4455
20231106,4659
20231107,4640
20231108,4675
20231109,4680
20231110,4623
20231113,4698
20231114,4715
20231115,4881
20231116,4973
20231117,4885
20231120,4897
20231121,4876
20231122,4817
20231124,4863
20231127,4879
20231128,4825
20231129,4812
20231130,4856
20231201,4851
20231204,4960
20231205,4992
20231206,4934
20231207,4873
20231208,4784
20231211,4898
20231212,4909
20231213,4885
20231214,4877
20231215,4999
20231218,4979
20231219,4998
20231220,5141
20231221,4979
20231222,5038
20231225,5051
20231226,5039
20231227,5124
20231228,5066
20231229,5038
20240104,4725
20240105,4771
20240109,4818
20240110,4792
20240111,4838
20240112,4792
20240115,4732
20240116,4749
20240117,4766
20240118,4728
20240119,4758
20240122,4783
20240123,4832
20240124,4855
20240125,4772
20240126,4742
20240129,4696
20240130,4761
20240131,4731
20240201,4573
20240202,4588
20240205,4672
20240206,4618
20240207,4668
20240208,4687
20240209,4785
20240213,4890
20240214,4798
20240215,4939
20240216,4927
20240219,4867
20240220,4873
20240221,4785
20240222,4770
20240226,4764
20240227,4816
20240228,4810
20240229,4778
20240301,4797
20240304,4791
20240305,4774
20240306,4726
20240307,4754
20240308,4751
20240311,4661
20240312,4650
20240313,4691
20240314,4643
20240315,4583
20240318,4590
20240319,4606
20240321,4741
20240322,4803
20240325,4765
20240326,4756
20240327,4725
20240328,4731
20240329,4749
20240401,4723
20240402,4718
20240403,4651
20240404,4678
20240405,4541
20240408,4584
20240409,4641
20240410,4663
20240411,4587
20240412,4623
20240415,4536
20240416,4444
20240417,4426
20240418,4381
20240419,4343
20240422,4290
20240423,4307
20240424,4386
20240425,4446
20240426,4483
20240430,4740
20240501,4651
20240502,4596
20240507,4697
20240508,4701
20240509,4691
20240510,4711
20240513,4589
20240514,4601
20240515,4689
20240516,4596
